CW0565 Weather Reports


time (UTC)temp
F
wind
direction
speed
knots
gust
knots
rain 1hr
in
rain 24hr
in
rain mn
in
humidity
%
barometer
mb
20260831131510 65 143 3.5 7.8 0.00 0.00 0.00 64 1003.4
20260831130009 64 189 6.1 9.6 0.00 0.00 0.00 66 1003.5
20260831124510 63 185 6.1 11.3 0.00 0.00 0.00 66 1003.6
20260831123014 64 188 5.2 9.6 0.00 0.00 0.00 64 1003.6
20260831121513 64 156 8.7 10.4 0.00 0.00 0.00 62 1003.6
20260831120011 64 161 6.1 10.4 0.00 0.00 0.00 62 1003.6
20260831114511 66 185 3.5 9.6 0.00 0.00 0.00 54 1003.4
20260831113010 65 129 6.1 13.0 0.00 0.00 0.00 59 1003.4
20260831111510 65 146 5.2 11.3 0.00 0.00 0.00 57 1003.4
20260831110013 66 148 3.5 6.1 0.00 0.00 0.00 55 1003.4
20260831104520 66 190 4.3 9.6 0.00 0.00 0.00 54 1003.5
20260831103015 65 163 5.2 9.6 0.00 0.00 0.00 54 1003.5
20260831101510 65 142 4.3 8.7 0.00 0.00 0.00 55 1003.7
20260831094527 64 170 6.1 8.7 0.00 0.00 0.00 58 1003.6
20260831093033 64 163 3.5 6.1 0.00 0.00 0.00 56 1003.6
20260831091509 63 169 3.5 7.0 0.00 0.00 0.00 59 1003.6
20260831081511 60 155 0.9 2.6 0.00 0.00 0.00 68 1003.9
20260831074510 64 155 0.0 1.7 0.00 0.00 0.00 62 1003.9
20260831073010 59 155 0.0 0.9 0.00 0.00 0.00 71 1004.0
20260831071525 60 157 0.0 0.9 0.00 0.00 0.00 71 1004.0
20260831070011 57 155 0.0 0.9 0.00 0.00 0.00 75 1004.1
20260831064509 56 155 0.0 1.7 0.00 0.00 0.00 80 1004.2
20260831054510 49 156 0.0 0.0 0.00 0.01 0.00 92 1004.3
20260831051516 48 155 1.7 4.3 0.00 0.01 0.00 90 1004.1
20260831044510 49 156 0.0 1.7 0.00 0.01 0.00 89 1004.1
20260831043010 50 155 0.0 2.6 0.00 0.01 0.00 88 1003.8
20260831034509 52 155 0.0 1.7 0.00 0.01 0.00 86 1003.9
20260831033018 52 155 2.6 6.1 0.00 0.01 0.00 84 1003.9
20260831031511 52 142 3.5 7.0 0.00 0.01 0.00 85 1004.0
20260831024512 53 82 0.0 1.7 0.00 0.01 0.00 82 1003.8
20260831023014 53 82 1.7 5.2 0.00 0.01 0.00 82 1003.8
20260831021515 53 156 0.0 2.6 0.00 0.01 0.00 81 1003.9
20260831014509 54 154 0.9 6.1 0.00 0.01 0.00 80 1003.9
20260831013010 54 171 3.5 6.1 0.00 0.01 0.00 81 1004.1
20260831011510 54 172 4.3 6.1 0.00 0.01 0.00 81 1004.0
20260831010011 54 171 0.9 4.3 0.00 0.01 0.00 81 1004.0
20260831004510 54 173 3.5 5.2 0.00 0.01 0.00 81 1004.2
20260831003017 54 175 4.3 7.0 0.00 0.01 0.00 81 1004.2
20260831001511 54 165 3.5 7.0 0.00 0.01 0.00 81 1004.2
20260831000016 55 165 3.5 5.2 0.00 0.01 0.00 81 1004.3
20260830234509 55 229 0.9 3.5 0.00 0.01 0.00 79 1004.2
20260830233010 55 227 2.6 5.2 0.00 0.01 0.00 79 1004.3
20260830231515 55 230 4.3 7.8 0.00 0.01 0.00 79 1004.2
20260830230009 55 237 3.5 9.6 0.00 0.01 0.00 79 1004.1
20260830224510 56 250 1.7 6.1 0.00 0.02 0.00 79 1003.9
20260830223009 56 226 2.6 6.1 0.00 0.02 0.00 79 1004.0
20260830221510 56 229 1.7 7.0 0.00 0.02 0.00 79 1003.9
20260830220010 56 229 3.5 8.7 0.00 0.02 0.02 79 1003.8
20260830214510 57 227 2.6 5.2 0.00 0.02 0.02 79 1003.8
20260830213010 57 266 0.9 9.6 0.00 0.02 0.02 79 1003.8
20260830211510 57 241 0.9 3.5 0.00 0.02 0.02 79 1003.7
20260830210010 57 249 0.0 2.6 0.00 0.02 0.02 78 1003.6
20260830204515 58 250 2.6 4.3 0.00 0.02 0.02 77 1003.5
20260830203013 58 238 0.0 3.5 0.00 0.02 0.02 77 1003.4
20260830201509 58 242 1.7 7.0 0.00 0.02 0.02 77 1003.3
20260830200009 58 247 0.9 2.6 0.00 0.02 0.02 77 1003.1
20260830194509 59 249 0.0 2.6 0.00 0.02 0.02 75 1003.0
20260830193022 60 294 1.7 7.8 0.00 0.02 0.02 74 1002.7
20260830191523 60 266 3.5 7.0 0.00 0.02 0.02 73 1002.7
20260830190010 61 248 2.6 7.0 0.00 0.02 0.02 73 1002.6
20260830184517 61 232 3.5 8.7 0.00 0.02 0.02 72 1002.4
20260830183009 62 204 1.7 7.8 0.00 0.02 0.02 72 1002.2
20260830181508 63 244 5.2 9.6 0.00 0.02 0.02 70 1002.1
20260830180014 64 244 5.2 8.7 0.00 0.03 0.02 68 1002.0
20260830174510 66 225 4.3 12.2 0.00 0.03 0.02 67 1001.9
20260830173009 66 241 2.6 12.2 0.00 0.03 0.02 66 1001.5
20260830171510 67 246 5.2 10.4 0.00 0.03 0.02 64 1001.4
20260830170008 67 306 7.0 13.9 0.00 0.03 0.02 64 1001.3
20260830164509 68 284 7.0 12.2 0.00 0.03 0.02 63 1001.2
20260830163010 68 302 6.1 10.4 0.00 0.03 0.02 64 1001.1
20260830161509 68 242 3.5 9.6 0.00 0.03 0.02 65 1000.9
20260830160009 69 252 6.1 11.3 0.00 0.03 0.02 64 1000.8
20260830154509 69 228 7.8 12.2 0.00 0.03 0.02 65 1000.7
20260830153008 69 227 7.0 11.3 0.00 0.03 0.02 64 1000.7
20260830151509 69 271 6.1 9.6 0.00 0.03 0.02 63 1000.6
20260830150024 69 219 5.2 11.3 0.00 0.03 0.02 65 1000.7
20260830144514 69 258 7.0 13.0 0.00 0.03 0.02 66 1000.7
20260830143009 69 218 6.1 10.4 0.00 0.03 0.02 66 1000.6
20260830141510 68 232 2.6 10.4 0.00 0.03 0.02 71 1000.5
20260830140009 67 181 4.3 7.8 0.00 0.04 0.02 72 1000.4
20260830134513 67 174 6.1 10.4 0.00 0.04 0.02 71 1000.4
20260830133011 67 196 3.5 8.7 0.00 0.04 0.02 70 1000.5